Tracking 25949 objects as of 9-Aug-2022
HD Live streaming from Space Station
objects crossing your sky now

STARLINK-4157

Track STARLINK-4157 now!
10-day predictions
STARLINK-4157 is classified as:


NORAD ID: 53035
Int'l Code: 2022-076BB
Perigee: 355.1 km
Apogee: 358.5 km
Inclination: 53.2 °
Period: 91.5 minutes
Semi major axis: 6727 km
RCS: Unknown
Launch date: July 7, 2022
Source: United States (US)
Launch site: AIR FORCE EASTERN TEST RANGE (AFETR)
aabbcc
Your satellite tracking list
Your tracking list is empty




NASA's NSSDC Master Catalog

Two Line Element Set (TLE):
1 53035U 22076BB  22221.25001157 -.00110595  00000-0 -79284-3 0  9999
2 53035  53.2174 217.7103 0002527  18.4707 109.9748 15.73228130  5638
Source of the keplerian elements: AFSPC